Погода в Нове Место над Метуйи

Чехия     50°21′02″N   16°09′02″E
темп.,
°C
ветер,
м/с
пор.,
м/с
влажн.,
%
обл.,
%
осадки,
мм/ч
давл.,
гПа
погр.,
м
19 сентября, вс
вс1923:00+11ссз2596100 0.6 1015395
02:00+10ссв2592100 0.7 1015380
05:00+10ссв239191 0.0 1016240
08:00+9св36867 0.1 1016540
11:00+11св346830 0.0 1016811
14:00+13св346169 0.0 10161158
17:00+11св357087 0.0 1016760
20:00+8всв248141 0.0 1017141
20 сентября, пн
пн2023:00+8св238428 0.0 101879
02:00+6св228612 0.0 101846
05:00+5св238342 0.0 101837
08:00+7св247658 0.0 1019166
11:00+10св346596 0.0 1020972
14:00+11св336189 0.1 10201002
17:00+12ссв446079 0.1 1020993
20:00+9св377199 0.1 1022252
21 сентября, вт
вт2123:00+9св237297 0.0 102371
02:00+9св226783 0.0 102432
05:00+9с226299 0.0 102532
08:00+9св256599 0.0 1026220
11:00+12ссв334717 0.0 10271380
14:00+14с334479 0.0 10261748
17:00+13ссв334769 0.0 10261504
20:00+8св3566100 0.0 102883
22 сентября, ср
ср2223:00+8св2269100 0.0 102947
02:00+6св1172100 0.0 102912
05:00+5св1174100 0.0 102810
08:00+7ссз1269100 0.0 1028120
11:00+10зсз2362100 0.0 1027647
14:00+11ссз2360100 0.0 10261026
17:00+11ссв2466100 0.1 1024845
20:00+8св117958 0.1 102416
23 сентября, чт
чт2323:00+6всв11879 0.0 102410
02:00+7ю118028 0.0 102313
05:00+5ююв119029 0.0 102211
08:00+7ю238454 0.0 102092
11:00+12юз3464100 0.0 1018621
14:00+15зюз4651100 0.0 1015991
17:00+15зюз4856100 0.0 1013770
20:00+11юз2469100 0.0 101367